Погода в Танджине

Южная Корея     36°53′38″N   126°37′50″E
темп.,
°C
ветер,
м/с
пор.,
м/с
влажн.,
%
обл.,
%
осадки,
мм/ч
давл.,
гПа
погр.,
м
22 января, сб
сб2200:000юв223882 0.0 102998
03:000ю1239100 0.0 102892
06:000вюв224398 0.0 1027118
09:00+1вюв124299 0.0 1028143
12:00+3вюв114490 0.0 1028254
15:00+4ссз115055 0.0 1025313
18:00+3с225878 0.0 1025101
21:00+2ссв2259100 0.0 102593
23 января, вс
вс2300:00+3ссв1156100 0.0 102579
03:00+2с2257100 0.0 102493
06:00+2с2355100 0.0 1023111
09:00+2ссв2352100 0.0 1023151
12:00+4ссз3345100 0.0 1023317
15:00+4сз55555 0.0 1021345
18:00+3сз56630 0.0 1021225
21:00+3ссз34640 0.0 1022134
24 января, пн
пн2400:00+2св23570 0.0 102288
03:00+2в45705 0.0 1022145
06:00+2в57775 0.0 1022164
09:00+2в510795 0.0 1023350
12:00+6вюв6859100 0.0 1023560
15:00+7юв5658100 0.0 1021576
18:00+5юз2375100 0.0 102251
21:00+5юз348099 0.0 102287
25 января, вт
вт2500:00+4ююз2486100 0.1 1022160
03:00+4ююз248898 0.2 1021238
06:00+4юз2485100 0.1 1021187
09:00+4з448366 0.1 1021296
12:00+4з457099 0.0 1022544
15:00+4зсз5672100 0.0 1021550
18:00+3зсз56775 0.0 1021419
21:00+3зсз56795 0.0 1022400
26 января, ср
ср2600:00+2зсз67765 0.0 1023406
03:00+2сз68681 0.0 1023472
06:00+2сз68642 0.0 1024573
09:00+2сз89562 0.0 1026976
12:00+1сз910540 0.0 1026914
15:00+1сз89490 0.0 1025867
18:00+1сз685037 0.0 1026637
21:000ссз7855100 0.0 1027536